{"data":{"norad_id":46487,"epoch":"2026-05-25T03:36:58.749408Z","epoch_age_seconds":61702,"freshness":"FRESH","line1":"1 46487U 20068B   26145.15067997 -.00000081  00000+0 -65631-3 0  9991","line2":"2 46487  82.4958   0.9624 0020783  81.8043 278.5392 12.42871390256288","mean_motion":12.4287139,"eccentricity":0.0020783,"inclination_deg":82.4958,"raan_deg":0.9624,"arg_perigee_deg":81.8043,"mean_anomaly_deg":278.5392,"bstar":-0.00065631,"rev_number":25628,"period_min":115.86074082854,"perigee_km":1478.0928393128,"apogee_km":1510.8160529177,"semimajor_km":7872.5914461152,"source":"CELESTRAK","updated_at":"2026-05-25T13:37:56.323826Z"}}